Tacoma, WA

4:59 AM PST on January 22, 2018 (GMT -0800)
McChord Air Force Base

Weather History for KTCM - August, 2014

Change the Weather History Date:

Sunday, August 17, 2014

  Actual Average Record
Temperature  
Mean Temperature 69 °F -  
Max Temperature 82 °F 74 °F 97 °F (1977)
Min Temperature 57 °F 51 °F 43 °F (2011)
Cooling Degree Days 4    
Growing Degree Days 19 (Base 50)    
Moisture  
Dew Point 59 °F    
Average Humidity 70    
Maximum Humidity 99    
Minimum Humidity 46    
Precipitation  
Precipitation 0.00 in - - ()
Sea Level Pressure  
Sea Level Pressure 30.10 in    
Wind  
Wind Speed 4 mph (NNE)    
Max Wind Speed 10 mph    
Max Gust Speed -    
Visibility 10 miles    
Events      
Averages and records for this station are not official NWS values.
T = Trace of Precipitation, MM = Missing Value Source: NWS Daily Summary

Daily Weather History Graph

Daily Weather History Graph

Search for Another Location

Airport or City:

Trip Planner

Search our weather history database for the weather conditions in past years. The results will help you decide how hot, cold, wet, or windy it might be!

Date:

Astronomy

Aug. 17, 2014 Rise Set
Actual Time 6:09 AM PDT 8:17 PM PDT
Civil Twilight 5:36 AM PDT 8:50 PM PDT
Nautical Twilight 4:55 AM PDT 9:31 PM PDT
Astronomical Twilight 4:08 AM PDT 10:17 PM PDT
Moon No Moon Rise 2:32 PM PDT (8/17)
Length of Visible Light 15h 14m
Length of Day
14h 07m
Waning Gibbous, 47% of the Moon is Illuminated
Aug 17
Waning Gibbous
Aug 25
New
Sep 2
First Quarter
Sep 8
Full
Sep 15
Last Quarter

Hourly Weather History & Observations

Time (PDT) Temp. Heat Index Dew Point Humidity Pressure Visibility Wind Dir Wind Speed Gust Speed Precip Events Conditions
12:58 AM 64.0 °F - 58.8 °F 83% 30.11 in 10.0 mi North 2.3 mph - N/A   Clear
1:58 AM 62.1 °F - 58.6 °F 89% 30.11 in 10.0 mi NNE 4.6 mph - N/A   Clear
2:58 AM 59.9 °F - 58.5 °F 95% 30.11 in 10.0 mi NNE 2.3 mph - N/A   Mostly Cloudy
3:58 AM 61.2 °F - 58.8 °F 92% 30.11 in 10.0 mi Calm Calm - N/A   Overcast
4:58 AM 58.6 °F - 58.1 °F 98% 30.12 in 10.0 mi South 4.6 mph - N/A   Overcast
5:58 AM 57.2 °F - 57.0 °F 99% 30.12 in 10.0 mi South 2.3 mph - N/A   Mostly Cloudy
6:58 AM 57.6 °F - 57.2 °F 99% 30.13 in 8.0 mi South 1.2 mph - N/A   Clear
7:58 AM 62.8 °F - 59.7 °F 90% 30.13 in 10.0 mi NNW 1.2 mph - N/A   Clear
8:58 AM 66.4 °F - 60.4 °F 81% 30.14 in 10.0 mi Variable 1.2 mph - N/A   Partly Cloudy
9:58 AM 70.9 °F - 60.1 °F 69% 30.14 in 10.0 mi North 3.5 mph - N/A   Clear
10:58 AM 72.7 °F - 60.1 °F 64% 30.14 in 10.0 mi North 8.1 mph - N/A   Clear
11:58 AM 74.8 °F - 60.4 °F 61% 30.14 in 10.0 mi NE 5.8 mph - N/A   Clear
12:58 PM 77.0 °F - 59.4 °F 54% 30.13 in 10.0 mi NNE 6.9 mph - N/A   Clear
1:58 PM 78.8 °F - 59.9 °F 52% 30.12 in 10.0 mi Variable 4.6 mph - N/A   Clear
2:58 PM 80.8 °F 81.3 °F 59.4 °F 48% 30.11 in 10.0 mi North 10.4 mph - N/A   Clear
3:58 PM 81.3 °F 81.7 °F 59.4 °F 47% 30.10 in 10.0 mi North 8.1 mph - N/A   Clear
4:58 PM 81.5 °F 82.0 °F 59.9 °F 48% 30.09 in 10.0 mi North 6.9 mph - N/A   Clear
5:58 PM 81.3 °F 81.6 °F 58.6 °F 46% 30.07 in 10.0 mi NE 8.1 mph - N/A   Clear
6:58 PM 79.3 °F - 58.3 °F 48% 30.06 in 10.0 mi NNE 8.1 mph - N/A   Clear
7:58 PM 76.1 °F - 58.5 °F 54% 30.06 in 10.0 mi NNE 8.1 mph - N/A   Clear
8:58 PM 72.7 °F - 58.8 °F 62% 30.06 in 10.0 mi North 8.1 mph - N/A   Clear
9:58 PM 70.7 °F - 58.3 °F 65% 30.05 in 10.0 mi NNE 6.9 mph - N/A   Clear
10:58 PM 68.2 °F - 58.1 °F 70% 30.05 in 10.0 mi NW 6.9 mph - N/A   Clear
11:58 PM 67.3 °F - 58.5 °F 73% 30.06 in 10.0 mi NW 5.8 mph - N/A   Clear